OBJECT BS (43822 NORAD) Tracking and Keplerian Element Data

This shows tracking and keplerian element data for the satellite.

Feedback or suggestion? Click here.




ElementValue
Catalog43822
NameOBJECT BS
Epoch Orbit750
Epoch Day65.84164932
Epoch Year2019
RAAN139.0551
Inclination97.7551
Eccentricity0.0014312
Argument of Perigee314.2828
Mean Anonmoly45.7217
Mean Motion14.94989987
Decay Rate-1.65E-06
L11 43822U 18099BS 19065.84164932 -.00000165 00000-0 -97418-5 0 9992
L22 43822 097.7551 139.0551 0014312 314.2828 045.7217 14.94989987007504



Live tracking and technical data element details for OBJECT BS (NORAD 43822). OBJECT BS can be tracked NOW for your location showing map with azimuth and elevation plus other details from your city location.







IsCatalogInMostPopularTable: catalog: 43822, numindb: 304
Update: records affected: 1



GetName: 43822 OBJECT BS

Hit Count: updated at: Thu, 23 Jan 2025 16:10:12 GMT